Regional Weather Roundup
Issued by NWS

Home | Current Version | Previous Version | Graphics & Text | Print | Product List | Glossary On
Versions: 1 2 3 4 5 6 7 8 9 10 11 12 13 14 15 16 17 18 19 20 21 22 23 24 25 26 27 28 29 30 31 32 33 34 35 36 37 38 39 40 41 42 43 44 45 46 47 48 49 50
145
ASUS43 KLMK 221810
RWRKY
KENTUCKY REGIONAL WEATHER ROUNDUP
NATIONAL WEATHER SERVICE LOUISVILLE KY
200 PM EDT MON MAY 22 2017

NOTE "FAIR" INDICATES FEW OR NO CLOUDS BELOW 12,000 FEET
WITH NO SIGNIFICANT WEATHER AND/OR OBSTRUCTIONS TO VISIBILITY.

KYZ001>023-026-027-061>063-070>075-221900-
WESTERN AND SOUTH CENTRAL KENTUCKY

CITY           SKY/WX    TMP DP  RH WIND       PRES   REMARKS
PADUCAH        PTSUNNY   70  47  43 E6        30.09F
HENDERSON      MOSUNNY   71  49  45 VRB7      30.11F
OWENSBORO      CLOUDY    70  50  49 VRB7      30.13F
HOPKINSVILLE   MOSUNNY   70  47  44 NE7       30.09F
BOWLING GREEN  CLOUDY    70  52  52 VRB5      30.11F
GLASGOW        CLOUDY    67  48  50 E6        30.12S
$$

KYZ024-025-028>034-038-045-046-053-221900-
NORTH CENTRAL KENTUCKY

CITY           SKY/WX    TMP DP  RH WIND       PRES   REMARKS
LOUISVILLE/SDF CLOUDY    69  44  40 NE5       30.12F
LOUISVILLE/LOU CLOUDY    68  47  46 CALM      30.13F
FORT KNOX      CLOUDY    65  47  51 E6        30.11F
$$

KYZ035>037-039>044-047>052-055>060-089>105-221900-
NORTHEAST KENTUCKY

CITY           SKY/WX    TMP DP  RH WIND       PRES   REMARKS
LEXINGTON      MOSUNNY   66  45  46 VRB5      30.13F
COVINGTON      CLOUDY    64  42  44 NW3       30.12F
FRANKFORT      MOSUNNY   66  46  48 VRB3      30.12F
$$

KYZ054-064>069-076>088-106>120-221900-
SOUTHEAST KENTUCKY

CITY           SKY/WX    TMP DP  RH WIND       PRES   REMARKS
JACKSON        CLOUDY    66  50  56 CALM      30.12F
LONDON         PTSUNNY   65  47  52 CALM      30.11F
SOMERSET       MOSUNNY   64  46  52 N6        30.13F
MIDDLESBORO    CLOUDY    69  56  63 E5        30.09F
MONTICELLO     CLOUDY    66  51  58 N15       30.13F
$$





USA.gov is the U.S. government's official web portal to all federal, state and local government web resources and services.